This is the latest recevied weather packets stored in our database for station/object K2BIG. If no packets are shown the sender has not sent any weather packets the latest 10 day(s).
| Time | Temp. | Humidity | Pressure | Rain* | Wind** | Luminosity | Snow |
|---|---|---|---|---|---|---|---|
| 1777817716 | 12.78° C | 48% | 1011.6 hPa | 0 mm | - | - | - |
| 1777817416 | 12.22° C | 48% | 1011.6 hPa | 0 mm | - | - | - |
| 1777817116 | 12.22° C | 48% | 1011.6 hPa | 0 mm | - | - | - |
| 1777816816 | 11.67° C | 53% | 1011.7 hPa | 0 mm | - | - | - |
| 1777816516 | 11.67° C | 52% | 1011.7 hPa | 0 mm | - | - | - |
| 1777816217 | 11.11° C | 49% | 1011.7 hPa | 0 mm | - | - | - |
| 1777815916 | 11.11° C | 54% | 1011.7 hPa | 0 mm | - | - | - |
| 1777815616 | 11.11° C | 53% | 1011.8 hPa | 0 mm | - | - | - |
| 1777815316 | 11.11° C | 51% | 1011.8 hPa | 0 mm | - | - | - |
| 1777815016 | 11.11° C | 54% | 1011.8 hPa | 0 mm | - | - | - |
| 1777814716 | 11.11° C | 56% | 1011.8 hPa | 0 mm | - | - | - |
| 1777814416 | 11.11° C | 56% | 1011.8 hPa | 0 mm | - | - | - |
| 1777814116 | 10.56° C | 62% | 1011.9 hPa | 0 mm | - | - | - |
| 1777813816 | 10° C | 58% | 1011.8 hPa | 0 mm | - | - | - |
| 1777813516 | 9.44° C | 61% | 1011.9 hPa | 0 mm | - | - | - |
| 1777813216 | 8.89° C | 60% | 1011.9 hPa | 0 mm | - | - | - |
| 1777812916 | 8.89° C | 59% | 1012 hPa | 0 mm | - | - | - |
| 1777812616 | 8.33° C | 59% | 1011.9 hPa | 0 mm | - | - | - |
| 1777812316 | 8.33° C | 60% | 1011.9 hPa | 0 mm | - | - | - |
| 1777812016 | 8.89° C | 59% | 1011.9 hPa | 0 mm | - | - | - |
| 1777811716 | 8.89° C | 59% | 1012 hPa | 0 mm | - | - | - |
| 1777811416 | 8.89° C | 60% | 1011.9 hPa | 0 mm | - | - | - |
| 1777811116 | 8.89° C | 61% | 1011.7 hPa | 0 mm | - | - | - |
| 1777810816 | 9.44° C | 61% | 1011.7 hPa | 0 mm | - | - | - |
| 1777810516 | 8.89° C | 63% | 1011.7 hPa | 0 mm | - | - | - |
* Rain latest hour (hover to see other rain measurements)
** Current wind speed in m/s (hover to see current wind gust speed)